2019 TOA Stage 3 Standings

2019 TOA Stage 3 Standings

DivisionRankBibNameTeamGC+/-
Open Men16Michael Bouwkamp0:58:48Race Leader
Open Men210Justin NeffBeadedstream1:05:5707:09.7
Open Men3140Richard StevensGoldstream Sports1:06:3407:46.5
Open Men4143Zac ColeCRC Racing1:08:1109:23.3
Open Men5152James BassetteGoldstream Sports1:09:3710:49.6
Open Women129Sheryl LoanKaladi-Trek1:07:34Race Leader
Open Women242Amber StullChain Reaction1:13:3906:05.2
Open Women3158Camille Ala1:14:5907:25.9
Open Women447Stacey Kolstad1:15:0407:30.2
Open Women5155Briana LowenCRC Racing1:16:1508:41.0
Open Women6159Holly Martinson1:18:4011:06.8
Open Women770Christine Flanum1:20:1412:40.0
Intermediate Men1142Donovan CampDon Solo1:07:33Race Leader
Intermediate Men2117David StanfieldTeam CPR1:07:4300:09.6
Intermediate Men3163Erik Swanson1:09:1001:37.1
Intermediate Men443Tom SchultzZipRacing1:10:2802:54.9
Intermediate Men5148Alexander Kubitz1:11:5704:23.6
Intermediate Men68David HenkeZipRacing1:12:2604:53.2
Intermediate Men7103James FredrickRevolution Racing1:12:4805:14.6
Intermediate Men8200Constantine Savostin1:13:5306:20.0
Intermediate Men9145Mathew Melarvie1:20:4013:07.1
Intermediate Men10164Erik Carlson1:22:0414:30.7
Intermediate Men11149Lee WeilkertUSAF1:35:0327:29.3
Intermediate/45 + Women1175Joanne AllanChain Reaction1:19:03Race Leader
Intermediate/45 + Women2153Cadence StullChain Reaction1:20:1201:09.8
Intermediate/45 + Women392Stacy Steinberg1:20:4701:44.7
Intermediate/45 + Women4113Rose GarnerSpeedway1:24:3905:36.1
Intermediate/45 + Women5225Kristin Riall1:25:1006:07.4
Intermediate/45 + Women6154Ashley MattsonBeadedstream1:32:0012:57.7
Intermediate/45 + Women7236Emma HaddixBeadedstream1:37:0217:59.0
Intermediate/45 + Women8172Natasha GrahamBeadedstream1:48:2229:18.9
Master 45 + Men164Erik OstbergKaladi-Trek1:05:16Race Leader
Master 45 + Men269Tom PeichelKaladi-Trek1:07:5102:34.6
Master 45 + Men354Michael WheatallWTF1:07:5302:37.1
Master 45 + Men4147Patrick CrabbQuick & Dirty1:09:3704:20.5
Master 45 + Men580Matt TabinorKaladi-Trek1:10:4005:24.2
Master 45 + Men675Bill FlemingKaladi-Trek1:11:2406:08.2
Master 45 + Men767Jeffrey Thurston1:17:2112:05.0
Master 45 + Men767Jeffrey Thurston1:17:2112:05.0
Master 45 + Men8102Jonathan Schultz1:21:2116:04.2
Novice / 60+ Women1238Heidi Swanson1:15:59Race Leader
Novice / 60+ Women2261Robin Cope1:18:3902:39.3
Novice / 60+ Women3214Sanjana Greenhill1:19:0603:06.3
Novice / 60+ Women4229Karen Lewis1:22:2806:28.3
Novice / 60+ Women5260Debra KinnBeadedstream1:23:4507:45.7
Novice / 60+ Women6211Nina Wladkowski1:31:1515:15.7
Novice / 60+ Women7106Cara FoxBeadedstream1:31:2915:29.7
Novice / 60+ Women8210Kristin Amstrup1:34:4318:44.0
Novice Men1141Mathew Burt1:27:36Race Leader
Novice Men2222David Duclos1:42:0314:27.6
Novice Men3139Terrance Pearson2:31:4304:07.2
Master 60 + Men1166Matt Claman1:17:28Race Leader
Master 60 + Men276Tol Fishburn1:21:0803:40.3
Master 60 + Men3146Jim Kubitz1:35:3618:07.7
Master 60 + Men4144Rick Pollock1:40:3023:02.4